Little Rock AFB, AR

2:22 AM CST on November 14, 2019 (GMT -0600)
Little Rock Air Force Base

Weather History for KLRF - August, 2019

Change the Weather History Date:

Friday, August 23, 2019

  Actual Average Record
Temperature  
Mean Temperature 79 °F -  
Max Temperature 88 °F 90 °F 105 °F (1983)
Min Temperature 70 °F 67 °F 58 °F (1973)
Cooling Degree Days 14    
Growing Degree Days 29 (Base 50)    
Moisture  
Dew Point 73 °F    
Average Humidity 85    
Maximum Humidity 100    
Minimum Humidity 63    
Precipitation  
Precipitation 0.01 in - - ()
Sea Level Pressure  
Sea Level Pressure 29.99 in    
Wind  
Wind Speed 4 mph ()    
Max Wind Speed 9 mph    
Max Gust Speed -    
Visibility 9.4 miles    
Events Rain , Thunderstorm    
Averages and records for this station are not official NWS values.
T = Trace of Precipitation, MM = Missing Value Source: Averaged Metar Reports

Daily Weather History Graph

Daily Weather History Graph

Search for Another Location

Airport or City:

Astronomy

Aug. 23, 2019 Rise Set
Actual Time 6:34 AM CDT 7:47 PM CDT
Civil Twilight 6:08 AM CDT 8:13 PM CDT
Nautical Twilight 5:36 AM CDT 8:44 PM CDT
Astronomical Twilight 5:04 AM CDT 9:17 PM CDT
Moon No Moon Rise 1:54 PM CDT (8/23)
Length of Visible Light 14h 05m
Length of Day
13h 12m
Waning Gibbous, 49% of the Moon is Illuminated
Aug 23
Waning Gibbous
Aug 30
New
Sep 5
First Quarter
Sep 13
Full
Sep 21
Last Quarter

Hourly Weather History & Observations

Time (CDT) Temp. Heat Index Dew Point Humidity Pressure Visibility Wind Dir Wind Speed Gust Speed Precip Events Conditions
12:08 AM 71.6 °F - 69.8 °F 94% 29.97 in 6.0 mi WSW 4.6 mph - N/A Rain , Thunderstorm Light Rain
12:24 AM 71.6 °F - 71.6 °F 100% 29.96 in 10.0 mi Calm Calm - N/A Thunderstorm Mostly Cloudy
12:56 AM 70.5 °F - 70.2 °F 99% 29.97 in 10.0 mi Calm Calm - 0.00 in   Mostly Cloudy
1:25 AM 71.6 °F - 69.8 °F 94% 29.97 in 6.0 mi South 6.9 mph - N/A Rain , Thunderstorm Light Rain
1:33 AM 71.6 °F - 71.6 °F 100% 29.98 in 10.0 mi South 4.6 mph - N/A   Clear
1:36 AM 71.6 °F - 71.6 °F 100% 29.99 in 6.0 mi South 5.8 mph - N/A Rain Light Rain
1:56 AM 70.9 °F - 70.9 °F 100% 29.99 in 6.0 mi South 6.9 mph - 0.01 in Rain Light Rain
2:11 AM 71.6 °F - 71.6 °F 100% 29.95 in 10.0 mi SW 6.9 mph - N/A   Scattered Clouds
2:28 AM 71.6 °F - 71.6 °F 100% 29.94 in 6.0 mi SW 8.1 mph - N/A   Light Drizzle
2:56 AM 71.6 °F - 71.2 °F 99% 29.96 in 6.0 mi SW 4.6 mph - 0.00 in   Light Drizzle
3:14 AM 71.6 °F - 71.6 °F 100% 29.95 in 10.0 mi SW 4.6 mph - N/A   Overcast
3:56 AM 71.4 °F - 71.1 °F 99% 29.96 in 10.0 mi WNW 4.6 mph - 0.00 in   Mostly Cloudy
4:56 AM 71.1 °F - 71.1 °F 100% 29.96 in 10.0 mi NNW 3.5 mph - N/A   Overcast
5:01 AM 71.6 °F - 71.6 °F 100% 29.96 in 10.0 mi NNW 3.5 mph - N/A   Overcast
5:56 AM 70.9 °F - 70.9 °F 100% 29.97 in 10.0 mi East 3.5 mph - N/A   Clear
6:56 AM 70.7 °F - 70.7 °F 100% 29.99 in 10.0 mi SE 3.5 mph - N/A   Partly Cloudy
7:56 AM 72.9 °F - 72.5 °F 99% 30.01 in 10.0 mi Calm Calm - N/A   Clear
8:49 AM 75.2 °F - 73.4 °F 94% 30.02 in 10.0 mi Calm Calm - N/A   Partly Cloudy
8:56 AM 75.0 °F - 72.9 °F 93% 30.02 in 10.0 mi Calm Calm - N/A   Partly Cloudy
9:56 AM 78.1 °F - 72.9 °F 84% 30.02 in 10.0 mi ENE 5.8 mph - N/A   Mostly Cloudy
10:46 AM 80.6 °F 85.4 °F 73.4 °F 79% 30.03 in 10.0 mi East 5.8 mph - N/A   Mostly Cloudy
10:56 AM 81.7 °F 86.7 °F 72.9 °F 74% 30.03 in 10.0 mi East 6.9 mph - N/A   Mostly Cloudy
11:06 AM 82.4 °F 88.2 °F 73.4 °F 74% 30.03 in 10.0 mi East 5.8 mph - N/A   Overcast
11:11 AM 82.4 °F 88.2 °F 73.4 °F 74% 30.03 in 10.0 mi East 6.9 mph - N/A   Overcast
11:26 AM 82.4 °F 88.2 °F 73.4 °F 74% 30.03 in 10.0 mi ENE 5.8 mph - N/A   Overcast
11:31 AM 82.4 °F 88.2 °F 73.4 °F 74% 30.03 in 10.0 mi ESE 4.6 mph - N/A   Overcast
11:36 AM 82.4 °F 88.2 °F 73.4 °F 74% 30.02 in 10.0 mi NE 4.6 mph - N/A   Mostly Cloudy
11:41 AM 82.4 °F 88.2 °F 73.4 °F 74% 30.02 in 10.0 mi NNE 4.6 mph - N/A   Mostly Cloudy
11:56 AM 84.0 °F 91.2 °F 73.9 °F 72% 30.02 in 10.0 mi East 6.9 mph - N/A   Mostly Cloudy
12:21 PM 82.4 °F 88.2 °F 73.4 °F 74% 30.02 in 10.0 mi ENE 4.6 mph - N/A   Mostly Cloudy
12:56 PM 84.7 °F 92.5 °F 74.3 °F 71% 30.01 in 10.0 mi North 4.6 mph - N/A   Mostly Cloudy
1:01 PM 84.2 °F 90.9 °F 73.4 °F 70% 30.01 in 10.0 mi Calm Calm - N/A   Mostly Cloudy
1:31 PM 86.0 °F 93.4 °F 73.4 °F 66% 30.00 in 10.0 mi East 4.6 mph - N/A   Scattered Clouds
1:56 PM 86.7 °F 95.0 °F 73.9 °F 66% 29.99 in 10.0 mi ENE 5.8 mph - N/A   Partly Cloudy
2:56 PM 86.9 °F 94.5 °F 73.2 °F 64% 29.98 in 10.0 mi NE 5.8 mph - N/A   Overcast
3:56 PM 87.6 °F 95.7 °F 73.8 °F 63% 29.95 in 10.0 mi ENE 5.8 mph - N/A   Scattered Clouds
4:56 PM 88.2 °F 98.0 °F 74.8 °F 65% 29.94 in 10.0 mi East 6.9 mph - N/A   Scattered Clouds
5:56 PM 86.7 °F 95.0 °F 73.9 °F 66% 29.95 in 10.0 mi East 8.1 mph - N/A   Clear
6:56 PM 82.8 °F 88.2 °F 72.7 °F 71% 29.95 in 10.0 mi ENE 5.8 mph - N/A   Clear
8:56 PM 79.3 °F - 73.9 °F 83% 29.97 in 10.0 mi NE 4.6 mph - N/A   Partly Cloudy
9:56 PM 79.7 °F - 73.9 °F 82% 29.98 in 10.0 mi ENE 9.2 mph - N/A   Overcast
10:56 PM 78.6 °F - 74.7 °F 88% 29.98 in 10.0 mi NE 6.9 mph - N/A   Mostly Cloudy
11:56 PM 77.4 °F - 74.8 °F 92% 29.99 in 10.0 mi ENE 9.2 mph - N/A   Clear